SKYSAT-C4

Last updated on Sun Dec 14 2025 00:02:32 GMT+0000 (Coordinated Universal Time)

1 41771U 16058B 25347.31665482 .00023455 00000+0 54616-3 0 9999 2 41771 96.9383 12.4762 0001587 134.4118 225.7261 15.42275484516767
UTC large
Height (km)
Speed (km/s)
/
Latitude / Longitude
Inclination (degrees)
Orbital Period (minutes)
Azimuth
Elevation
Range (km)
Doppler Factor

Next 0 passes for location: London (51.5072 / 0.1276)

Sorry there are no passes over London.